Time,TemperatureF,DewpointF,PressureIn,WindDirection,WindDirectionDegrees,WindSpeedMPH,WindSpeedGustMPH,Humidity,HourlyPrecipIn,Conditions,Clouds,dailyrainin,SoftwareType,DateUTC
2013-08-20 00:13:00,68.0,-99.9,-100.00,West,266,0.0,-999.0,-999,-99.99,,,-99.99,,2013-08-20 04:13:00,
2013-08-20 00:23:00,68.0,-99.9,-100.00,West,266,0.0,-999.0,-999,-99.99,,,-99.99,,2013-08-20 04:23:00,
2013-08-20 00:54:00,67.0,-99.9,-100.00,West,266,0.0,-999.0,-999,-99.99,,,-99.99,,2013-08-20 04:54:00,
2013-08-20 01:22:00,67.0,-99.9,-100.00,West,266,0.0,-999.0,-999,-99.99,,,-99.99,,2013-08-20 05:22:00,
2013-08-20 01:52:00,66.0,-99.9,-100.00,West,267,0.0,-999.0,-999,-99.99,,,-99.99,,2013-08-20 05:52:00,
2013-08-20 02:22:00,66.0,-99.9,-100.00,West,267,0.0,-999.0,-999,-99.99,,,-99.99,,2013-08-20 06:22:00,
2013-08-20 02:52:00,65.0,-99.9,-100.00,West,267,0.0,-999.0,-999,-99.99,,,-99.99,,2013-08-20 06:52:00,
2013-08-20 03:22:00,65.0,-99.9,-100.00,West,266,0.0,-999.0,-999,-99.99,,,-99.99,,2013-08-20 07:22:00,
2013-08-20 03:52:00,65.0,-99.9,-100.00,West,267,0.0,-999.0,-999,-99.99,,,-99.99,,2013-08-20 07:52:00,
2013-08-20 04:22:00,64.0,-99.9,-100.00,West,267,0.0,-999.0,-999,-99.99,,,-99.99,,2013-08-20 08:22:00,
2013-08-20 04:52:00,64.0,-99.9,-100.00,West,267,0.0,-999.0,-999,-99.99,,,-99.99,,2013-08-20 08:52:00,
2013-08-20 05:21:00,64.0,-99.9,-100.00,West,267,0.0,-999.0,-999,-99.99,,,-99.99,,2013-08-20 09:21:00,
2013-08-20 05:53:00,63.0,-99.9,-100.00,West,271,0.0,-999.0,-999,-99.99,,,-99.99,,2013-08-20 09:53:00,
2013-08-20 06:23:00,62.0,-99.9,-100.00,West,267,0.0,-999.0,-999,-99.99,,,-99.99,,2013-08-20 10:23:00,
2013-08-20 06:52:00,62.0,-99.9,-100.00,West,267,0.0,-999.0,-999,-99.99,,,-99.99,,2013-08-20 10:52:00,
2013-08-20 07:11:00,62.0,-99.9,-100.00,West,267,0.0,-999.0,-999,-99.99,,,-99.99,,2013-08-20 11:11:00,
2013-08-20 07:22:00,62.0,-99.9,-100.00,West,267,0.0,-999.0,-999,-99.99,,,-99.99,,2013-08-20 11:22:00,
2013-08-20 07:33:00,62.0,-99.9,-100.00,West,267,0.0,-999.0,-999,-99.99,,,-99.99,,2013-08-20 11:33:00,
2013-08-20 09:52:00,72.0,-99.9,-100.00,West,267,0.0,-999.0,-999,-99.99,,,-99.99,,2013-08-20 13:52:00,
2013-08-20 10:22:00,75.0,-99.9,-100.00,West,266,0.0,-999.0,-999,-99.99,,,-99.99,,2013-08-20 14:22:00,
2013-08-20 10:52:00,77.0,-99.9,-100.00,West,267,0.0,-999.0,-999,-99.99,,,-99.99,,2013-08-20 14:52:00,
2013-08-20 11:22:00,79.0,-99.9,-100.00,West,266,0.0,-999.0,-999,-99.99,,,-99.99,,2013-08-20 15:22:00,
2013-08-20 11:54:00,81.0,-99.9,-100.00,West,267,0.0,-999.0,-999,-99.99,,,-99.99,,2013-08-20 15:54:00,
2013-08-20 12:31:00,-999.0,-99.9,-100.00,WSW,257,3.0,-999.0,-999,-99.99,,,-99.99,,2013-08-20 16:31:00,
2013-08-20 12:53:00,84.0,-99.9,-100.00,WSW,255,0.0,-999.0,-999,-99.99,,,-99.99,,2013-08-20 16:53:00,
2013-08-20 13:12:00,82.0,-99.9,-100.00,South,182,0.0,-999.0,-999,-99.99,,,-99.99,,2013-08-20 17:12:00,
2013-08-20 13:24:00,84.0,-99.9,-100.00,SSW,193,4.0,-999.0,-999,-99.99,,,-99.99,,2013-08-20 17:24:00,
2013-08-20 13:52:00,82.0,-99.9,-100.00,SSW,199,0.0,-999.0,-999,-99.99,,,-99.99,,2013-08-20 17:52:00,
2013-08-20 14:12:00,84.0,-99.9,-100.00,WSW,250,0.0,-999.0,-999,-99.99,,,-99.99,,2013-08-20 18:12:00,
2013-08-20 14:22:00,85.0,-99.9,-100.00,WSW,247,0.0,-999.0,-999,-99.99,,,-99.99,,2013-08-20 18:22:00,
2013-08-20 14:52:00,84.0,-99.9,-100.00,SSW,195,0.0,-999.0,-999,-99.99,,,-99.99,,2013-08-20 18:52:00,
2013-08-20 15:22:00,85.0,-99.9,-100.00,South,175,0.0,-999.0,-999,-99.99,,,-99.99,,2013-08-20 19:22:00,
2013-08-20 15:53:00,86.0,-99.9,-100.00,SSW,206,3.0,-999.0,-999,-99.99,,,-99.99,,2013-08-20 19:53:00,
2013-08-20 16:22:00,85.0,-99.9,-100.00,South,175,1.0,-999.0,-999,-99.99,,,-99.99,,2013-08-20 20:22:00,
2013-08-20 16:52:00,85.0,-99.9,-100.00,South,181,1.0,-999.0,-999,-99.99,,,-99.99,,2013-08-20 20:52:00,
2013-08-20 17:22:00,84.0,-99.9,-100.00,SSW,198,0.0,-999.0,-999,-99.99,,,-99.99,,2013-08-20 21:22:00,
2013-08-20 17:55:00,85.0,-99.9,-100.00,SW,217,0.0,-999.0,-999,-99.99,,,-99.99,,2013-08-20 21:55:00,
2013-08-20 18:24:00,84.0,-99.9,-100.00,South,175,0.0,-999.0,-999,-99.99,,,-99.99,,2013-08-20 22:24:00,
2013-08-20 18:54:00,83.0,-99.9,-100.00,South,177,0.0,-999.0,-999,-99.99,,,-99.99,,2013-08-20 22:54:00,
2013-08-20 19:23:00,83.0,-99.9,-100.00,South,178,0.0,-999.0,-999,-99.99,,,-99.99,,2013-08-20 23:23:00,
2013-08-20 19:53:00,82.0,-99.9,-100.00,South,178,0.0,-999.0,-999,-99.99,,,-99.99,,2013-08-20 23:53:00,
2013-08-20 20:23:00,81.0,-99.9,-100.00,South,178,0.0,-999.0,-999,-99.99,,,-99.99,,2013-08-21 00:23:00,
2013-08-20 20:42:00,81.0,-99.9,-100.00,South,178,0.0,-999.0,-999,-99.99,,,-99.99,,2013-08-21 00:42:00,
2013-08-20 20:52:00,79.0,-99.9,-100.00,South,178,0.0,-999.0,-999,-99.99,,,-99.99,,2013-08-21 00:52:00,
2013-08-20 21:22:00,77.0,-99.9,-100.00,South,178,0.0,-999.0,-999,-99.99,,,-99.99,,2013-08-21 01:22:00,
2013-08-20 21:42:00,77.0,-99.9,-100.00,South,178,0.0,-999.0,-999,-99.99,,,-99.99,,2013-08-21 01:42:00,
2013-08-20 21:52:00,76.0,-99.9,-100.00,South,178,0.0,-999.0,-999,-99.99,,,-99.99,,2013-08-21 01:52:00,
2013-08-20 22:22:00,75.0,-99.9,-100.00,South,178,0.0,-999.0,-999,-99.99,,,-99.99,,2013-08-21 02:22:00,
2013-08-20 22:52:00,74.0,-99.9,-100.00,South,178,0.0,-999.0,-999,-99.99,,,-99.99,,2013-08-21 02:52:00,
2013-08-20 23:12:00,74.0,-99.9,-100.00,South,178,0.0,-999.0,-999,-99.99,,,-99.99,,2013-08-21 03:12:00,
2013-08-20 23:23:00,73.0,-99.9,-100.00,South,178,0.0,-999.0,-999,-99.99,,,-99.99,,2013-08-21 03:23:00,
2013-08-20 23:55:00,72.0,-99.9,-100.00,South,178,0.0,-999.0,-999,-99.99,,,-99.99,,2013-08-21 03:55:00,